This demonstration page uses our WeatherBlox Daily Observations layout. Learn more.

Left ArrowRight Arrow

Hourly Observations for March 2, 2017

Temp ( °F °C ) Dew Point ( °F °C ) Humidity (%) Winds ( mph kmh ) Pressure ( in mb ) Visibility ( mi km ) Precip ( " mm )
12:53 am 00:53 Cloudy 39 3.9 28 -2.2 65 65 WNW 13 20 30.07 1018 10 16.0934 N/A
1:53 am 01:53 Cloudy 39 3.9 28 -2.2 65 65 W 15 24 30.09 1019 10 16.0934 N/A
2:53 am 02:53 Cloudy 38 3.3 29 -1.7 70 70 WNW 9 15 30.11 1020 10 16.0934 N/A
3:53 am 03:53 Cloudy 38 3.3 27 -2.8 65 65 W 12 19 30.11 1020 10 16.0934 N/A
4:53 am 04:53 Cloudy 37 2.8 26 -3.3 65 65 W 16 26 30.14 1021 10 16.0934 N/A
5:53 am 05:53 Cloudy 36 2.2 25 -3.9 64 64 WNW 6 9 30.16 1021 10 16.0934 N/A
6:53 am 06:53 Cloudy 37 2.8 26 -3.3 65 65 W 12 19 30.17 1022 10 16.0934 N/A
7:53 am 07:53 Cloudy 36 2.2 26 -3.3 67 67 W 9 15 30.19 1023 10 16.0934 N/A
8:53 am 08:53 Cloudy 35 1.7 25 -3.9 67 67 WNW 15 24 30.24 1024 10 16.0934 N/A
9:53 am 09:53 Mostly Sunny 38 3.3 25 -3.9 60 60 W 8 13 30.24 1024 10 16.0934 N/A
10:53 am 10:53 Partly Cloudy 39 3.9 25 -3.9 57 57 WNW 13 20 30.27 1025 10 16.0934 N/A
11:53 am 11:53 Cloudy 39 3.9 24 -4.4 55 55 WNW 15 24 30.28 1025 10 16.0934 N/A
12:53 pm 12:53 Cloudy 41 5 26 -3.3 55 55 WNW 9 15 30.28 1025 10 16.0934 N/A
1:53 pm 13:53 Cloudy 42 5.6 26 -3.3 53 53 WSW 9 15 30.26 1025 10 16.0934 N/A
2:53 pm 14:53 Cloudy 43 6.1 24 -4.4 47 47 W 16 26 30.25 1024 10 16.0934 N/A
3:53 pm 15:53 Cloudy 44 6.7 22 -5.6 41 41 WSW 20 31 30.25 1024 10 16.0934 N/A
4:53 pm 16:53 Mostly Cloudy 43 6.1 21 -6.1 42 42 W 17 28 30.27 1025 10 16.0934 N/A
5:53 pm 17:53 Mostly Sunny 40 4.4 24 -4.4 53 53 WNW 16 26 30.28 1025 10 16.0934 N/A
6:53 pm 18:53 Clear 39 3.9 23 -5 53 53 WNW 13 20 30.3 1026 10 16.0934 N/A
7:53 pm 19:53 Mostly Cloudy 39 3.9 21 -6.1 48 48 WNW 12 19 30.32 1027 10 16.0934 N/A
8:53 pm 20:53 Cloudy 38 3.3 22 -5.6 52 52 NW 12 19 30.34 1027 10 16.0934 N/A
9:53 pm 21:53 Cloudy 36 2.2 24 -4.4 62 62 WNW 12 19 30.35 1028 10 16.0934 N/A
10:53 pm 22:53 Mostly Cloudy 35 1.7 23 -5 61 61 NW 16 26 30.37 1028 10 16.0934 N/A
11:53 pm 23:53 Mostly Cloudy 33 0.6 20 -6.7 58 58 W 9 15 30.38 1029 10 16.0934 N/A

Powered by AerisWeather